Regional Weather Roundup
Issued by NWS San Diego, CA

Home | Current Version | Previous Version | Text Only | Print | Product List | Glossary On
Versions: 1 2 3 4 5 6 7 8 9 10 11 12 13 14 15 16 17 18 19 20 21 22 23 24 25 26 27 28 29 30 31 32 33 34 35 36 37 38 39 40 41 42 43 44 45 46 47 48 49 50
000
ASUS46 KSGX 171310
RWRSGX

SAN DIEGO HOURLY WEATHER ROUNDUP
NATIONAL WEATHER SERVICE SAN DIEGO CA
600 AM PDT WED SEP 17 2014

NOTE: "FAIR" INDICATES FEW OR NO CLOUDS BELOW 12,000 FEET WITH NO
SIGNIFICANT WEATHER AND/OR OBSTRUCTIONS TO VISIBILITY.

CAZ042-043-060-061-PZZ750-775-171400-

GREATER SAN DIEGO AREA

CITY           SKY/WX    TMP DP  RH WIND       PRES   REMARKS
LINDBERGH FLD  PTCLDY    77  70  79 CALM      29.72R
POINT LOMA       N/A     78  65  65 NW2         N/A
NATIONAL CITY    N/A     78  71  79 CALM      29.71S
IMPERIAL BEACH PTCLDY    72  69  90 CALM      29.71S FOG
BROWN FIELD    CLEAR     82  62  50 E6        29.73R
MIRAMAR MCAS   PTCLDY    77  67  71 CALM      29.73R
MONTGOMERY FLD CLEAR     78  69  73 CALM      29.73R

$$

NORTH SAN DIEGO COUNTY

CITY           SKY/WX    TMP DP  RH WIND       PRES   REMARKS
CAMP PENDLETON CLEAR     74  65  73 CALM      29.71S
OCEANSIDE AP   CLEAR     73  66  78 CALM      29.71R
OCEANSIDE HBR    N/A     73  71  92 CALM      29.74R
VISTA            N/A     74  67  79 CALM      29.69R
CARLSBAD       CLEAR     76  69  79 N3        29.71S
DEL MAR          N/A     73  71  93 CALM      29.74R
LA JOLLA SCRIP   N/A     72  71  95 N1        29.69R
FALLBROOK        N/A     78  72  80 CALM      29.71S
ESCONDIDO        N/A     80  66  61 CALM      29.72R
SAN MARCOS       N/A     79  66  64 CALM      29.68S
POWAY            N/A     77  66  68 W2        29.71S

$$

EAST SAN DIEGO COUNTY

CITY           SKY/WX    TMP DP  RH WIND       PRES   REMARKS
RAMONA         PTCLDY    77  58  51 CALM      29.78S
SANTEE LAKES     N/A     75  68  78 CALM      29.72R
LA MESA          N/A     80  70  70 CALM      29.64S
JAMUL            N/A     77  62  58 CALM      29.69R
DESCANSO N       N/A     73  60  63 SE3       29.60S
MT. LAGUNA OBS   N/A     59  56  90 NE14      29.65S
CAMPO            N/A     68  59  73 E7        29.85R

$$

ORANGE COUNTY AND THE LOS ANGELES BASIN

CITY           SKY/WX    TMP DP  RH WIND       PRES   REMARKS
JOHN WAYNE AP  CLEAR     81  61  50 E3        29.71R
LAKE FOREST FR   N/A     81  61  50 CALM      29.60R
SANTA ANA        N/A     74  65  72 CALM      29.67R
HUNTINGTON BCH   N/A     71  67  87 CALM      29.74R
LOS ALAMITOS   FAIR      73  65  77 S1        29.72R
FULLERTON      CLEAR     78  62  57 CALM      29.71R
LONG BEACH     CLEAR     78  63  59 CALM      29.71S
L.A. AP        CLEAR     76  64  66 CALM      29.72S
L.A. DOWNTOWN  CLEAR     77  62  59 CALM      29.71S

$$

THE INLAND EMPIRE

CITY           SKY/WX    TMP DP  RH WIND       PRES   REMARKS
CORONA         CLEAR     73  63  71 CALM      29.75R
CHINO          CLEAR     76  67  73 CALM      29.76R
ONTARIO        CLEAR     82  64  54 CALM      29.76R
RIVERSIDE AP   CLEAR     82  65  56 CALM      29.76R
RIV CYN CREST    N/A     80  73  77 CALM      29.73S
MORENO VALLEY    N/A     78  67  68 CALM        N/A
MARCH ARB      CLEAR     78  65  62 W2        29.80S
HORSETHIEF CYN   N/A     77  63  63 CALM      29.75R
PERRIS           N/A     79  66  63 CALM      29.77R
MENIFEE          N/A     74  71  87 CALM      29.84S
HEMET EAST       N/A     77  60  56 CALM      29.71S
FRENCH VALLEY  FAIR      75  66  73 CALM      29.79S
TEMECULA         N/A     74  69  83 CALM      29.75R

$$

SAN BERNARDINO AND RIVERSIDE COUNTY MOUNTAINS

CITY           SKY/WX    TMP DP  RH WIND       PRES   REMARKS
BIG BEAR AP    CLEAR     46  45  93 CALM      30.17S
ANGELUS OAKS     N/A     60  52  74 CALM      29.68R
PINE COVE        N/A     63  52  67 CALM      29.63S

$$

SOUTHERN DESERT INCLUDING THE COACHELLA VALLEY

CITY           SKY/WX    TMP DP  RH WIND       PRES   REMARKS
PALM SPRINGS   CLEAR     85  67  54 N3        29.76S
THOUSAND PALMS   N/A     81  68  64 W1        29.71R
PALM DESERT      N/A     82  71  68 CALM        N/A
THERMAL        CLEAR     77  68  73 CALM      29.70S
BLYTHE         MOCLDY    80  70  71 CALM      29.76R
IMPERIAL AP    PTCLDY    85  65  51 SE3       29.72S
EL CENTRO NAS  PTCLDY    84  64  50 SE3       29.73R
YUMA AZ        MOCLDY    83  72  69 NW5       29.74S

$$

UPPER DESERT

CITY           SKY/WX    TMP DP  RH WIND       PRES   REMARKS
VICTORVILLE AP CLEAR     70  63  78 S5        29.90S
HESPERIA         N/A     69  60  71 CALM      29.82S
APPLE VALLEY     N/A     67  58  72 CALM      29.97S
PALMDALE       CLEAR     70  50  49 CALM      29.88R
LANCASTER      CLEAR     68  47  46 CALM      29.87R
EDWARDS AFB    PTCLDY    69  42  37 W5        29.84S
DAGGETT        CLEAR     74  61  63 CALM      29.84R
29 PALMS N     CLEAR     74  63  68 CALM      29.93R
NEEDLES        CLEAR     79  71  76 W3        29.80R

$$

REGIONAL REPORTS

CITY           SKY/WX    TMP DP  RH WIND       PRES   REMARKS
SANTA BARBARA  CLEAR     68  60  75 CALM      29.71R
SANDBERG       CLEAR     75  33  21 W9        30.01R
MT. WILSON       N/A     64  55  72 MISG        N/A
LAS VEGAS NV   PTCLDY    80  58  46 CALM      29.84R
PHOENIX AZ     LGT RAIN  81  68  64 NE12      29.79F
TIJUANA        PTCLDY    68  57  68 CALM      29.74S
ENSENADA NW      N/A     75  32  20 NE3       29.67S

$$

OFFSHORE ISLANDS

CITY           SKY/WX    TMP DP  RH WIND       PRES   REMARKS
CATALINA ARPT  CLEAR     83  51  33 CALM      29.81R
SAN NICOLAS IS CLEAR     67  58  72 NW23      29.73R

$$

MARINE AND OFFSHORE BUOY REPORTS

STATION/POSITION SKY/WX   TEMP    WIND        PRES    SWELL
                          AIR SEA DIR/SP/G            HT/PER/DIR
                          (F)     (DEG/KT/KT) (MB)    (FT/S/D)
TANNER BANKS               68 70  310/ 16/ 19 1007.4R   5/210/17
S CLEMENTE BASIN           72 75  310/ 12/ 12 1006.1R   5/250/19
SAN NICOLAS IS.               67                N/A     5/200/18
SO. S. ROSA ISLA           66 67  320/ 19/ 23 1006.6R   3/17
W. S. BARBARA CH           61 60  310/ 19/ 23 1006.3S   3/170/17
M. S. BARBARA CH           68 66   70/  2/  4 1006.2
S. MONICA BASIN            72 74  340/ 12/ 14 1005.7R   3/300/19
S PEDRO CHANNEL               71                N/A     2/220/18
DANA POINT                    71                N/A     3/200/18
OCEANSIDE OFFSHR              73                N/A     3/220/18
TORREY PINES OTR              74                N/A     3/220/18
LA JOLLA 1                 74 71   30/  1/  2 1006.2R
MISSION BAY BUOY              74                N/A     3/220/18
SAN DIEGO BAY                 76              1006.5R

$$




USA.gov is the U.S. government's official web portal to all federal, state and local government web resources and services.